This is the latest recevied weather packets stored in our database for station/object K5KHP. If no packets are shown the sender has not sent any weather packets the latest 1 day(s).
| Time | Temp. | Humidity | Pressure | Rain* | Wind** | Luminosity | Snow |
|---|---|---|---|---|---|---|---|
| 1778009848 | 18.33° C | 62% | 1014.3 hPa | 0 mm | 1.34 m/s, 255° | 421 W/m² | - |
| 1778009545 | 19.44° C | 59% | 1014.2 hPa | 0 mm | 0.45 m/s, 248° | 237 W/m² | - |
| 1778009244 | 19.44° C | 61% | 1014.1 hPa | 0 mm | 0 m/s | 334 W/m² | - |
| 1778008941 | 20° C | 60% | 1014.3 hPa | 0 mm | 0.45 m/s, 165° | 528 W/m² | - |
| 1778008639 | 19.44° C | 61% | 1014.3 hPa | 0 mm | 0.45 m/s, 251° | 794 W/m² | - |
| 1778008338 | 19.44° C | 61% | 1014.4 hPa | 0 mm | 0 m/s | 790 W/m² | - |
| 1778008033 | 18.89° C | 64% | 1014.3 hPa | 0 mm | 0 m/s | 754 W/m² | - |
| 1778007733 | 18.89° C | 62% | 1014.4 hPa | 0 mm | 2.68 m/s, 260° | 675 W/m² | - |
| 1778007430 | 18.89° C | 65% | 1014.2 hPa | 0 mm | 0 m/s | 612 W/m² | - |
| 1778007126 | 18.89° C | 64% | 1014 hPa | 0 mm | 0.89 m/s, 278° | 673 W/m² | - |
| 1778006822 | 19.44° C | 61% | 1013.9 hPa | 0 mm | 0.89 m/s, 258° | 754 W/m² | - |
| 1778006520 | 19.44° C | 59% | 1013.9 hPa | 0 mm | 0.45 m/s, 252° | 736 W/m² | - |
| 1778006217 | 19.44° C | 59% | 1013.9 hPa | 0 mm | 3.13 m/s, 250° | 741 W/m² | - |
| 1778005914 | 19.44° C | 59% | 1014 hPa | 0 mm | 0 m/s | 701 W/m² | - |
| 1778005610 | 18.89° C | 60% | 1014 hPa | 0 mm | 0 m/s | 452 W/m² | - |
| 1778005308 | 19.44° C | 60% | 1013.9 hPa | 0 mm | 0 m/s | 677 W/m² | - |
| 1778005004 | 19.44° C | 61% | 1013.9 hPa | 0 mm | 0 m/s | 670 W/m² | - |
| 1778004702 | 18.89° C | 61% | 1013.9 hPa | 0 mm | 0.45 m/s, 254° | 698 W/m² | - |
| 1778004397 | 19.44° C | 62% | 1014.1 hPa | 0 mm | 0 m/s | 644 W/m² | - |
| 1778004095 | 18.89° C | 63% | 1014 hPa | 0 mm | 0.45 m/s, 178° | 689 W/m² | - |
| 1778003791 | 18.89° C | 64% | 1013.8 hPa | 0 mm | 0 m/s | 673 W/m² | - |
| 1778003487 | 18.89° C | 64% | 1013.8 hPa | 0 mm | 0 m/s | 586 W/m² | - |
| 1778003184 | 18.33° C | 64% | 1014 hPa | 0 mm | 0 m/s | 117 W/m² | - |
| 1778002880 | 18.89° C | 63% | 1014 hPa | 0 mm | 0 m/s | 673 W/m² | - |
| 1778002577 | 18.33° C | 63% | 1013.8 hPa | 0 mm | 0 m/s | 686 W/m² | - |
* Rain latest hour (hover to see other rain measurements)
** Current wind speed in m/s (hover to see current wind gust speed)